Time,TemperatureF,DewpointF,PressureIn,WindDirection,WindDirectionDegrees,WindSpeedMPH,WindSpeedGustMPH,Humidity,HourlyPrecipIn,Conditions,Clouds,dailyrainin,SoftwareType,DateUTC
2014-09-17 00:24:00,54.0,50.0,-100.00,South,170,1.0,3.0,84,0.00,,,-99.99,,2014-09-17 04:24:00,
2014-09-17 00:53:00,53.0,50.0,-100.00,SW,215,1.0,4.0,91,0.00,,,-99.99,,2014-09-17 04:53:00,
2014-09-17 01:23:00,51.0,49.0,-100.00,NE,40,1.0,2.0,92,0.00,,,-99.99,,2014-09-17 05:23:00,
2014-09-17 01:53:00,51.0,49.0,-100.00,NE,40,1.0,3.0,93,0.00,,,-99.99,,2014-09-17 05:53:00,
2014-09-17 02:23:00,51.0,49.0,-100.00,SW,215,0.0,2.0,94,0.00,,,-99.99,,2014-09-17 06:23:00,
2014-09-17 02:52:00,50.0,49.0,-100.00,SSW,200,1.0,4.0,94,0.00,,,-99.99,,2014-09-17 06:52:00,
2014-09-17 03:22:00,50.0,48.0,-100.00,WSW,240,0.0,2.0,92,0.00,,,-99.99,,2014-09-17 07:22:00,
2014-09-17 03:53:00,49.0,48.0,-100.00,NE,50,0.0,2.0,93,0.00,,,-99.99,,2014-09-17 07:53:00,
2014-09-17 04:22:00,50.0,48.0,-100.00,North,10,0.0,1.0,92,0.00,,,-99.99,,2014-09-17 08:22:00,
2014-09-17 04:53:00,49.0,48.0,-100.00,SW,215,1.0,3.0,95,0.00,,,-99.99,,2014-09-17 08:53:00,
2014-09-17 05:23:00,49.0,48.0,-100.00,SW,220,1.0,3.0,96,0.00,,,-99.99,,2014-09-17 09:23:00,
2014-09-17 05:54:00,49.0,47.0,-100.00,NE,45,1.0,3.0,93,0.00,,,-99.99,,2014-09-17 09:54:00,
2014-09-17 06:24:00,49.0,48.0,-100.00,North,0,1.0,5.0,95,0.00,,,-99.99,,2014-09-17 10:24:00,
2014-09-17 06:53:00,51.0,49.0,-100.00,SW,215,1.0,4.0,94,0.00,,,-99.99,,2014-09-17 10:53:00,
2014-09-17 07:24:00,51.0,50.0,-100.00,SW,225,1.0,6.0,94,0.00,,,-99.99,,2014-09-17 11:24:00,
2014-09-17 07:53:00,52.0,50.0,-100.00,NNE,30,2.0,5.0,93,0.00,,,-99.99,,2014-09-17 11:53:00,
2014-09-17 08:22:00,52.0,50.0,-100.00,North,5,2.0,6.0,93,0.00,,,-99.99,,2014-09-17 12:22:00,
2014-09-17 08:53:00,51.0,50.0,-100.00,North,0,1.0,4.0,94,0.00,,,-99.99,,2014-09-17 12:53:00,
2014-09-17 09:23:00,53.0,50.0,-100.00,SSW,205,0.0,6.0,90,0.00,,,-99.99,,2014-09-17 13:23:00,
2014-09-17 09:53:00,54.0,50.0,-100.00,NNE,30,1.0,4.0,85,0.00,,,-99.99,,2014-09-17 13:53:00,
2014-09-17 10:23:00,55.0,50.0,-100.00,NE,55,2.0,5.0,83,0.00,,,-99.99,,2014-09-17 14:23:00,
2014-09-17 10:52:00,57.0,50.0,-100.00,NE,35,5.0,8.0,79,0.00,,,-99.99,,2014-09-17 14:52:00,
2014-09-17 11:22:00,57.0,50.0,-100.00,NNE,30,4.0,6.0,76,0.00,,,-99.99,,2014-09-17 15:22:00,
2014-09-17 11:54:00,60.0,52.0,-100.00,NE,50,4.0,6.0,73,0.00,,,-99.99,,2014-09-17 15:54:00,
2014-09-17 12:24:00,60.0,49.0,-100.00,NW,320,0.0,6.0,65,0.00,,,-99.99,,2014-09-17 16:24:00,
2014-09-17 12:53:00,60.0,47.0,-100.00,SW,230,6.0,9.0,62,0.00,,,-99.99,,2014-09-17 16:53:00,
2014-09-17 13:24:00,63.0,49.0,-100.00,NW,310,2.0,6.0,60,0.00,,,-99.99,,2014-09-17 17:24:00,
2014-09-17 13:53:00,64.0,49.0,-100.00,WNW,295,3.0,7.0,58,0.00,,,-99.99,,2014-09-17 17:53:00,
2014-09-17 14:23:00,62.0,48.0,-100.00,WNW,295,3.0,5.0,61,0.00,,,-99.99,,2014-09-17 18:23:00,
2014-09-17 14:52:00,63.0,47.0,-100.00,North,0,1.0,11.0,57,0.00,,,-99.99,,2014-09-17 18:52:00,
2014-09-17 15:22:00,65.0,47.0,-100.00,SW,230,3.0,9.0,52,0.00,,,-99.99,,2014-09-17 19:22:00,
2014-09-17 15:52:00,65.0,48.0,-100.00,NE,40,3.0,5.0,55,0.00,,,-99.99,,2014-09-17 19:52:00,
2014-09-17 16:23:00,64.0,48.0,-100.00,NW,310,3.0,5.0,55,0.00,,,-99.99,,2014-09-17 20:23:00,
2014-09-17 16:52:00,66.0,49.0,-100.00,SSE,150,1.0,6.0,55,0.00,,,-99.99,,2014-09-17 20:52:00,
2014-09-17 17:22:00,65.0,49.0,-100.00,SW,225,3.0,6.0,55,0.00,,,-99.99,,2014-09-17 21:22:00,
2014-09-17 17:54:00,65.0,48.0,-100.00,NW,305,3.0,8.0,52,0.00,,,-99.99,,2014-09-17 21:54:00,
2014-09-17 18:23:00,65.0,49.0,-100.00,NNE,15,1.0,5.0,56,0.00,,,-99.99,,2014-09-17 22:23:00,
2014-09-17 18:53:00,65.0,48.0,-100.00,NW,325,2.0,5.0,54,0.00,,,-99.99,,2014-09-17 22:53:00,
2014-09-17 19:22:00,64.0,49.0,-100.00,NNE,20,1.0,4.0,58,0.00,,,-99.99,,2014-09-17 23:22:00,
2014-09-17 19:53:00,62.0,49.0,-100.00,North,5,2.0,4.0,60,0.00,,,-99.99,,2014-09-17 23:53:00,
2014-09-17 20:22:00,61.0,49.0,-100.00,East,100,0.0,2.0,66,0.00,,,-99.99,,2014-09-18 00:22:00,
2014-09-17 20:52:00,60.0,49.0,-100.00,SW,225,1.0,5.0,66,0.00,,,-99.99,,2014-09-18 00:52:00,
2014-09-17 21:22:00,58.0,49.0,-100.00,NE,45,1.0,3.0,72,0.00,,,-99.99,,2014-09-18 01:22:00,
2014-09-17 21:52:00,58.0,49.0,-100.00,SW,220,2.0,4.0,72,0.00,,,-99.99,,2014-09-18 01:52:00,
2014-09-17 22:22:00,58.0,49.0,-100.00,NE,35,1.0,4.0,72,0.00,,,-99.99,,2014-09-18 02:22:00,